Time,TemperatureF,DewpointF,PressureIn,WindDirection,WindDirectionDegrees,WindSpeedMPH,WindSpeedGustMPH,Humidity,HourlyPrecipIn,Conditions,Clouds,dailyrainin,SoftwareType,DateUTC
2014-10-31 00:07:00,66.7,39.6,29.98,NW,315,3.2,-999.0,37,-99.99,,,0.00,Acu-Link.com,2014-10-31 05:07:00,
2014-10-31 00:22:00,66.2,38.5,29.99,NNW,337,1.7,-999.0,36,-99.99,,,0.00,Acu-Link.com,2014-10-31 05:22:00,
2014-10-31 00:37:00,65.5,37.8,29.99,West,270,0.0,-999.0,36,-99.99,,,0.00,Acu-Link.com,2014-10-31 05:37:00,
2014-10-31 00:52:00,64.6,37.7,29.99,West,270,0.0,-999.0,37,-99.99,,,0.00,Acu-Link.com,2014-10-31 05:52:00,
2014-10-31 01:07:00,63.5,38.1,29.99,NNW,337,0.0,-999.0,39,-99.99,,,0.00,Acu-Link.com,2014-10-31 06:07:00,
2014-10-31 01:22:00,62.6,37.9,29.99,North,0,0.0,-999.0,40,-99.99,,,0.00,Acu-Link.com,2014-10-31 06:22:00,
2014-10-31 01:38:00,61.5,38.2,29.99,WNW,292,0.0,-999.0,42,-99.99,,,0.00,Acu-Link.com,2014-10-31 06:38:00,
2014-10-31 01:53:00,60.4,37.8,30.00,NNE,22,0.0,-999.0,43,-99.99,,,0.00,Acu-Link.com,2014-10-31 06:53:00,
2014-10-31 02:08:00,59.9,37.9,30.00,NNW,337,0.0,-999.0,44,-99.99,,,0.00,Acu-Link.com,2014-10-31 07:08:00,
2014-10-31 02:23:00,58.6,38.4,30.00,NNW,337,0.0,-999.0,47,-99.99,,,0.00,Acu-Link.com,2014-10-31 07:23:00,
2014-10-31 02:38:00,57.7,38.1,30.00,NNW,337,0.0,-999.0,48,-99.99,,,0.00,Acu-Link.com,2014-10-31 07:38:00,
2014-10-31 02:53:00,57.0,38.0,30.00,NNW,337,0.0,-999.0,49,-99.99,,,0.00,Acu-Link.com,2014-10-31 07:53:00,
2014-10-31 03:08:00,56.5,38.1,30.01,North,0,0.0,-999.0,50,-99.99,,,0.00,Acu-Link.com,2014-10-31 08:08:00,
2014-10-31 03:23:00,56.3,37.9,30.01,NNW,337,0.0,-999.0,50,-99.99,,,0.00,Acu-Link.com,2014-10-31 08:23:00,
2014-10-31 03:38:00,56.3,36.9,30.01,NNW,337,3.2,-999.0,48,-99.99,,,0.00,Acu-Link.com,2014-10-31 08:38:00,
2014-10-31 03:54:00,57.0,36.4,30.01,North,0,4.2,-999.0,46,-99.99,,,0.00,Acu-Link.com,2014-10-31 08:54:00,
2014-10-31 04:09:00,56.8,36.2,30.02,NNW,337,2.7,-999.0,46,-99.99,,,0.00,Acu-Link.com,2014-10-31 09:09:00,
2014-10-31 04:24:00,55.6,36.2,30.02,NNW,337,1.1,-999.0,48,-99.99,,,0.00,Acu-Link.com,2014-10-31 09:24:00,
2014-10-31 04:39:00,54.9,36.1,30.02,WNW,292,2.7,-999.0,49,-99.99,,,0.00,Acu-Link.com,2014-10-31 09:39:00,
2014-10-31 04:54:00,54.3,35.6,30.03,West,270,1.7,-999.0,49,-99.99,,,0.00,Acu-Link.com,2014-10-31 09:54:00,
2014-10-31 05:09:00,53.4,35.2,30.03,NNW,337,0.0,-999.0,50,-99.99,,,0.00,Acu-Link.com,2014-10-31 10:09:00,
2014-10-31 05:25:00,52.5,35.4,30.03,West,270,0.0,-999.0,52,-99.99,,,0.00,Acu-Link.com,2014-10-31 10:25:00,
2014-10-31 05:40:00,51.3,35.2,30.04,West,270,0.0,-999.0,54,-99.99,,,0.00,Acu-Link.com,2014-10-31 10:40:00,
2014-10-31 05:55:00,50.4,34.8,30.04,West,270,0.0,-999.0,55,-99.99,,,0.00,Acu-Link.com,2014-10-31 10:55:00,
2014-10-31 06:10:00,50.0,34.9,30.05,NNE,22,0.0,-999.0,56,-99.99,,,0.00,Acu-Link.com,2014-10-31 11:10:00,
2014-10-31 06:25:00,49.6,34.6,30.05,NNW,337,1.1,-999.0,56,-99.99,,,0.00,Acu-Link.com,2014-10-31 11:25:00,
2014-10-31 06:40:00,49.5,34.9,30.07,SW,225,3.2,-999.0,57,-99.99,,,0.00,Acu-Link.com,2014-10-31 11:40:00,
2014-10-31 06:55:00,49.8,34.3,30.07,SSE,157,0.0,-999.0,55,-99.99,,,0.00,Acu-Link.com,2014-10-31 11:55:00,
2014-10-31 07:10:00,49.6,34.6,30.07,West,270,2.2,-999.0,56,-99.99,,,0.00,Acu-Link.com,2014-10-31 12:10:00,
2014-10-31 07:25:00,49.3,34.3,30.08,NNW,337,0.0,-999.0,56,-99.99,,,0.00,Acu-Link.com,2014-10-31 12:25:00,
2014-10-31 07:41:00,49.8,34.7,30.08,West,270,1.7,-999.0,56,-99.99,,,0.00,Acu-Link.com,2014-10-31 12:41:00,